Showing default

HODOYOSHI 3, 40015

Orbit data source: Space-Track

HODOYOSHI 3, 40015 is a payload satellite owned by Tokyo (JP) in SSO that was launched on Thu, 19 Jun 2014 UTC via a DNEPR launch vehicle from the Orenburg, Russia (OREN). Payload-class satellites include a variety of spacecraft equipped with specific instruments for various scientific and technological missions. These include communications satellites like Starlink; space stations such as the ISS; scientific satellites like the Hubble; Earth observation satellites from companies like Planet Labs, Umbra, and HawkEye 360; GPS; miniature CubeSats for education and research; and military/defense satellites.

Loading next visibility...
Identifier
40015, 2014-033F
Orbit
SSO
Country
Flag of JPJP / JPN
Related business
Manufacturer
AXELSPACE
Mission
Operational Commercial Imaging
Bus & Motor
HODOYOSHI, Unknown motor
Mass
58 kg wet, 58 kg dry
Launch date (UTC)
2014-06-19 (11 years ago)
Launch vehicle
DNEPR
Launch site
Orenburg, Russia (OREN)
Object type
Payload
Rocket body
Debris
Shape & HBR
Box + 2 Pan, 0.8 m
Radar Cross Section
0.614 m², Medium (>0.1 m² and < 1m²)

Expand to show TLE details & history
Last TLE update: 10 hours ago

TLE from 10 hours ago
0 HODOYOSHI 3
1 40015U 14033F   25342.44429928  .00002935  00000-0  34897-3 0  9992
2 40015  97.6198 148.4663 0031820 262.7037  97.0561 14.84784577619318
Epoch: 2025-12-08T10:39Z
TLE epoch observation values (Epoch: 2025-12-08T10:39:47.457Z)
Latitude
-0.00006°
Longitude
-88.92467°
Altitude
620.102 km
Speed
7.547 km/s
True Right ascension
09h 53m 51s
True Declination
0° 00' 00"
Sunlit
Object was in daylight at epoch
Visualization orbit readout
Latitude
Unknown
Longitude
Unknown
Altitude
Unknown
Speed
Unknown
Apparent Right ascension
Unknown
Apparent Declination
Unknown
Sunlit
N/A
Visualization observer readout
Local Sidereal Time
18:35:44
Azimuth
Unknown
Elevation
Unknown
Doppler factor
Unknown
Orbital elements
Apogee altitude
633.525 km
Perigee altitude
589.044 km
Semi-major axis
6,989.421 km
Eccentricity
0.00318
Inclination
97.6198°
RAAN
148.4663°
Arg. of periapsis
262.7037°
True anomaly
97.41779°
Mean anomaly
97.0561°
Eccentric anomaly
97.23696°
Mean motion
3.71434 °/min
Orbital period
96.92 mins
BSTAR
0.00034897
Loading maneuver chart data...
Computing Atmospheric mass density...
Loading historical data...
Loading historical data...
Loading historical data...
Loading historical data...
Loading historical data...
Loading historical data...
Loading historical data...

Documentation

Showing up to 5 results
|